St. Cloud, MN

1:39 AM CDT on June 25, 2018 (GMT -0500)
Saint Cloud Regional

Weather History for KSTC - October, 2017

Change the Weather History Date:

Saturday, October 28, 2017

  Actual Average Record
Temperature  
Mean Temperature 33 °F 41 °F  
Max Temperature 36 °F 51 °F 73 °F (1912)
Min Temperature 29 °F 31 °F 7 °F (1919)
Degree Days  
Heating Degree Days 32 24  
Month to date heating degree days 447 523  
Since 1 July heating degree days 626 809  
Cooling Degree Days 0 0  
Month to date cooling degree days 0 0  
Year to date cooling degree days 361 463  
Moisture  
Dew Point 25 °F    
Average Humidity 82    
Maximum Humidity 92    
Minimum Humidity 72    
Precipitation  
Precipitation 0.00 in 0.06 in 1.89 in (1940)
Month to date precipitation 4.99 2.31  
Year to date precipitation 28.85 25.35  
Snow  
Snow 0.00 in 0.00 in 1.20 in (1913)
Month to date snowfall 1.4 0.6  
Since 1 July snowfall 1.4 0.6  
Since 1 September snowfall 1.4 0.6  
Snow Depth T in    
Sea Level Pressure  
Sea Level Pressure 30.02 in    
Wind  
Wind Speed 7 mph (North)    
Max Wind Speed 20 mph    
Max Gust Speed 28 mph    
Visibility 10 miles    
Events      
T = Trace of Precipitation, MM = Missing Value Source: NWS Daily Summary

Daily Weather History Graph

Daily Weather History Graph

Search for Another Location

Airport or City:

Astronomy

Oct. 28, 2017 Rise Set
Actual Time 7:50 AM CDT 6:08 PM CDT
Civil Twilight 7:19 AM CDT 6:39 PM CDT
Nautical Twilight 6:45 AM CDT 7:14 PM CDT
Astronomical Twilight 6:10 AM CDT 7:48 PM CDT
Moon 3:06 PM CDT (10/28) 12:16 AM CDT (10/28)
Length of Visible Light 11h 19m
Length of Day
10h 18m
First Quarter, 58% of the Moon is Illuminated
Oct 28
First Quarter
Nov 4
Full
Nov 10
Last Quarter
Nov 18
New
Nov 26
First Quarter

Hourly Weather History & Observations

Time (CDT) Temp. Windchill Dew Point Humidity Pressure Visibility Wind Dir Wind Speed Gust Speed Precip Events Conditions
12:53 AM 30.9 °F 20.2 °F 24.1 °F 76% 30.06 in 10.0 mi North 15.0 mph 25.3 mph N/A   Overcast
1:53 AM 30.9 °F 20.7 °F 23.0 °F 72% 30.06 in 10.0 mi North 13.8 mph - N/A   Overcast
2:53 AM 30.9 °F 21.7 °F 24.1 °F 76% 30.06 in 10.0 mi NNW 11.5 mph 21.9 mph N/A   Overcast
3:53 AM 30.0 °F 21.1 °F 24.1 °F 79% 30.05 in 10.0 mi North 10.4 mph - N/A   Overcast
4:53 AM 30.0 °F 21.7 °F 24.1 °F 79% 30.06 in 10.0 mi NNW 9.2 mph - N/A   Overcast
5:53 AM 30.0 °F 21.7 °F 25.0 °F 82% 30.06 in 10.0 mi North 9.2 mph - N/A   Overcast
6:53 AM 30.0 °F 22.4 °F 24.1 °F 79% 30.06 in 10.0 mi North 8.1 mph - N/A   Overcast
7:53 AM 30.0 °F 24.1 °F 25.0 °F 82% 30.06 in 10.0 mi NW 5.8 mph - N/A   Overcast
8:53 AM 30.0 °F 23.2 °F 25.0 °F 82% 30.07 in 10.0 mi NW 6.9 mph - N/A   Overcast
9:53 AM 30.0 °F 21.7 °F 25.0 °F 82% 30.07 in 10.0 mi NW 9.2 mph - N/A   Overcast
10:53 AM 30.0 °F 22.4 °F 25.0 °F 82% 30.07 in 10.0 mi NNW 8.1 mph - N/A   Overcast
11:53 AM 30.9 °F 24.3 °F 25.0 °F 79% 30.06 in 10.0 mi NW 6.9 mph - N/A   Overcast
12:53 PM 30.0 °F 22.4 °F 25.0 °F 82% 30.05 in 10.0 mi WNW 8.1 mph - N/A   Overcast
1:53 PM 30.9 °F 26.2 °F 25.0 °F 79% 30.02 in 10.0 mi WNW 4.6 mph - N/A   Overcast
2:53 PM 34.0 °F - 26.1 °F 73% 30.00 in 10.0 mi Calm Calm - N/A   Overcast
3:53 PM 32.0 °F 28.7 °F 25.0 °F 75% 29.99 in 10.0 mi East 3.5 mph - N/A   Partly Cloudy
4:53 PM 34.0 °F 28.8 °F 26.1 °F 73% 29.99 in 10.0 mi SSE 5.8 mph - N/A   Clear
5:53 PM 32.0 °F 27.5 °F 25.0 °F 75% 29.98 in 10.0 mi ESE 4.6 mph - N/A   Clear
6:53 PM 30.0 °F 25.2 °F 24.1 °F 79% 29.97 in 10.0 mi ESE 4.6 mph - N/A   Clear
7:53 PM 30.0 °F 24.1 °F 25.0 °F 82% 29.96 in 10.0 mi SE 5.8 mph - N/A   Clear
8:53 PM 30.0 °F 22.4 °F 25.0 °F 82% 29.95 in 10.0 mi ESE 8.1 mph - N/A   Clear
9:53 PM 28.9 °F 21.9 °F 25.0 °F 85% 29.93 in 10.0 mi SE 6.9 mph - N/A   Partly Cloudy
10:53 PM 28.9 °F 21.1 °F 26.1 °F 89% 29.92 in 10.0 mi SE 8.1 mph - N/A   Partly Cloudy
11:53 PM 28.9 °F 21.9 °F 26.1 °F 89% 29.90 in 10.0 mi SE 6.9 mph - N/A   Overcast